Tracking 25734 objects as of 28-May-2022
HD Live streaming from Space Station
objects crossing your sky now

COSMOS 1275 DEB

Track COSMOS 1275 DEB now!
10-day predictions


NORAD ID: 42219
Int'l Code: 1981-053UK
Perigee: 840.0 km
Apogee: 917.3 km
Inclination: 83.0 °
Period: 102.4 minutes
Semi major axis: 7249 km
RCS: Unknown
Launch date: June 4, 1981
Source: Commonwealth of Independent States (former USSR) (CIS)
Launch site: PLESETSK MISSILE AND SPACE COMPLEX (PKMTR)

Note: This is SATELLITE DEBRIS
aabbcc
Your satellite tracking list
Your tracking list is empty




NASA's NSSDC Master Catalog

Two Line Element Set (TLE):
1 42219U 81053UK  22146.35897115  .00002506  00000-0  14880-2 0  9995
2 42219  82.9544  10.9931 0053330  29.8076 330.6116 14.06454377422178
Source of the keplerian elements: AFSPC